{"data":{"norad_id":52574,"intl_designator":"2022-051AQ","name":"STARLINK-3901","alt_names":[],"object_type":"PAYLOAD","status":"ACTIVE","operator":null,"country":"US","launch_date":"2022-05-13","launch_site_code":"AFWTR","launch_vehicle":null,"mission":null,"orbit_class":"UNKNOWN","rcs_meters":null,"size_class":null,"mass_kg":null,"dimensions":null,"purposes":["comms"],"wikipedia_slug":null,"has_3d_model":false,"image_url":null,"decayed_at":null,"tle_current":{"epoch":"2026-09-20T03:18:01.511136Z","epoch_age_seconds":94635,"freshness":"FRESH","line1":"1 52574U 22051AQ  26263.13751749  .00025040  00000+0  26248-3 0  9994","line2":"2 52574  53.1589 303.9634 0001995  63.8084 296.3137 15.64269150241240","mean_motion":15.6426915,"eccentricity":0.0001995,"inclination_deg":53.1589,"raan_deg":303.9634,"arg_perigee_deg":63.8084,"mean_anomaly_deg":296.3137,"bstar":0.00026248,"rev_number":24124,"period_min":92.055769302872,"perigee_km":373.99417274115,"apogee_km":376.68881065934,"semimajor_km":6753.4784917002,"source":"CELESTRAK","updated_at":"2026-09-20T09:00:40.064651Z"}}}